Location: Allaines
(49.9632°N, 2.9458°E)
Time: 11:32:24
(UTC+00:00)

ISS - Pass Details

Date: 02 July 2021
Orbit: 419 x 421 km, 51.6° (Epoch: 31 July)

Event Time Altitude Azimuth Distance (km) Brightness Sun altitude
Exits shadow 01:29:38 15° 151° (SSE) 1,238 -1.7 -13.9°
Maximum altitude 01:30:13 15° 138° (SE) 1,213 -1.7 -13.8°
Drops below altitude 10° 01:32:17 10° 101° (E) 1,502 -0.8 -13.7°
Sets 01:34:59 0° 78° (ENE) 2,369 0.6 -13.5°
